User: anonymous   Login
Location: Unspecified
(0.0000°N, 0.0000°E)
Time: 12:07:17
(UTC+00:00)
Language:

USA 224 - Orbit

View from above orbital plane
View from above orbital plane
View from above satellite
View from above satellite

Ground track
Ground track

The orbit data is extracted from the following two-line orbital elements,

1 37348U 11002A   15146.00151246 0.00030000  00000-0  32879-3 0    03
2 37348  97.8722 258.5377 0540924 145.0012 214.9987 14.73810247    03
Epoch (UTC): 26 May 2015 00:02:10
Eccentricity: 0.0540924
inclination: 97.8722°
perigee height: 269 km
apogee height: 1029 km
right ascension of ascending node: 258.5377°
argument of perigee: 145.0012°
revolutions per day: 14.73810247
mean anomaly at epoch: 214.9987°
orbit number at epoch: 0

The dashed part of the orbit path shows where the satellite is in the earth's shadow,  

DLR